User: anonymous   Login
Location: Unspecified
(0.0000°N, 0.0000°E)
Time: 19:12:59
(UTC+01:00)
Language:

ATLAS V CENTAUR R/B - Orbit

View from above orbital plane
View from above orbital plane
View from above satellite
View from above satellite

Ground track
Ground track

The orbit data is extracted from the following two-line orbital elements,

1 27500U 02038B   17019.58653133  .00000437  00000-0  49015-4 0  9996
2 27500  17.9603 139.2652 6790520 165.1113 234.7296  2.94078585121530
Epoch (UTC): 19 January 2017 14:04:36
Eccentricity: 0.6790520
inclination: 17.9603°
perigee height: 226 km
apogee height: 28175 km
right ascension of ascending node: 139.2652°
argument of perigee: 165.1113°
revolutions per day: 2.94078585
mean anomaly at epoch: 234.7296°
orbit number at epoch: 12153

The dashed part of the orbit path shows where the satellite is in the earth's shadow,  

DLR